| time (UTC) | temp F | wind direction | speed MPH | gust MPH | rain 1hr in | rain 24hr in | rain mn in | humidity % | barometer mb |
| 20260509113030 | 51 | 329 | 0.0 | 2.0 | 0.00 | 0.00 | 0.00 | 95 | 1008.9 |
| 20260509110520 | 50 | 329 | 0.0 | 3.0 | 0.00 | 0.00 | 0.00 | 94 | 1009.1 |
| 20260509105515 | 50 | 329 | 0.0 | 3.0 | 0.00 | 0.00 | 0.00 | 94 | 1009.1 |
| 20260509105007 | 50 | 329 | 1.0 | 3.0 | 0.00 | 0.00 | 0.00 | 94 | 1009.1 |
| 20260509104507 | 51 | 329 | 1.0 | 3.0 | 0.00 | 0.00 | 0.00 | 94 | 1009.1 |
| 20260509104011 | 51 | 329 | 1.0 | 3.0 | 0.00 | 0.00 | 0.00 | 94 | 1009.3 |
| 20260509103511 | 51 | 329 | 0.0 | 0.0 | 0.00 | 0.00 | 0.00 | 94 | 1009.3 |
| 20260509103001 | 51 | 329 | 0.0 | 0.0 | 0.00 | 0.00 | 0.00 | 94 | 1009.3 |
| 20260509102459 | 51 | 329 | 0.0 | 0.0 | 0.00 | 0.00 | 0.00 | 94 | 1009.2 |
| 20260509101959 | 51 | 329 | 0.0 | 0.0 | 0.00 | 0.00 | 0.00 | 94 | 1009.2 |
| 20260509101457 | 51 | 329 | 0.0 | 0.0 | 0.00 | 0.00 | 0.00 | 94 | 1009.2 |
| 20260509100952 | 51 | 329 | 0.0 | 0.0 | 0.00 | 0.00 | 0.00 | 93 | 1009.4 |
| 20260509095954 | 52 | 329 | 0.0 | 0.0 | 0.00 | 0.00 | 0.00 | 93 | 1009.4 |
| 20260509095448 | 52 | 329 | 0.0 | 0.0 | 0.00 | 0.00 | 0.00 | 94 | 1009.4 |
| 20260509094947 | 52 | 329 | 0.0 | 0.0 | 0.00 | 0.00 | 0.00 | 94 | 1009.4 |
| 20260509094441 | 51 | 329 | 0.0 | 0.0 | 0.00 | 0.00 | 0.00 | 94 | 1009.4 |
| 20260509093934 | 51 | 329 | 0.0 | 0.0 | 0.00 | 0.00 | 0.00 | 93 | 1009.5 |
| 20260509093431 | 51 | 329 | 0.0 | 0.0 | 0.00 | 0.00 | 0.00 | 93 | 1009.5 |
| 20260509092928 | 51 | 329 | 0.0 | 2.0 | 0.00 | 0.00 | 0.00 | 93 | 1009.5 |
| 20260509092424 | 52 | 329 | 0.0 | 2.0 | 0.00 | 0.00 | 0.00 | 93 | 1009.4 |
| 20260509091923 | 52 | 329 | 0.0 | 2.0 | 0.00 | 0.00 | 0.00 | 93 | 1009.4 |
| 20260509091419 | 52 | 329 | 0.0 | 2.0 | 0.00 | 0.00 | 0.00 | 93 | 1009.4 |
| 20260509090923 | 52 | 329 | 0.0 | 1.0 | 0.00 | 0.00 | 0.00 | 93 | 1009.5 |
| 20260509090423 | 52 | 329 | 0.0 | 1.0 | 0.00 | 0.00 | 0.00 | 93 | 1009.5 |
| 20260509085913 | 52 | 329 | 0.0 | 2.0 | 0.00 | 0.00 | 0.00 | 93 | 1009.5 |
| 20260509085413 | 52 | 329 | 0.0 | 2.0 | 0.00 | 0.00 | 0.00 | 93 | 1009.5 |
| 20260509084908 | 51 | 329 | 0.0 | 2.0 | 0.00 | 0.00 | 0.00 | 93 | 1009.5 |
| 20260509083905 | 51 | 329 | 0.0 | 0.0 | 0.00 | 0.00 | 0.00 | 93 | 1009.7 |
| 20260509083405 | 51 | 329 | 0.0 | 0.0 | 0.00 | 0.00 | 0.00 | 93 | 1009.7 |
| 20260509082405 | 51 | 329 | 0.0 | 2.0 | 0.00 | 0.00 | 0.00 | 92 | 1009.8 |
| 20260509081401 | 51 | 329 | 0.0 | 2.0 | 0.00 | 0.00 | 0.00 | 93 | 1009.8 |
| 20260509080353 | 52 | 329 | 1.0 | 3.0 | 0.00 | 0.00 | 0.00 | 92 | 1009.8 |
| 20260509075853 | 52 | 329 | 1.0 | 3.0 | 0.00 | 0.00 | 0.00 | 92 | 1009.9 |
| 20260509075352 | 52 | 329 | 1.0 | 3.0 | 0.00 | 0.00 | 0.00 | 92 | 1009.9 |
| 20260509074849 | 52 | 329 | 1.0 | 4.0 | 0.00 | 0.00 | 0.00 | 92 | 1009.9 |
| 20260509074346 | 52 | 329 | 0.0 | 4.0 | 0.00 | 0.00 | 0.00 | 92 | 1009.9 |
| 20260509073842 | 52 | 329 | 1.0 | 4.0 | 0.00 | 0.00 | 0.00 | 92 | 1009.9 |
| 20260509073347 | 52 | 329 | 1.0 | 4.0 | 0.00 | 0.00 | 0.00 | 91 | 1009.9 |
| 20260509072842 | 52 | 329 | 1.0 | 3.0 | 0.00 | 0.00 | 0.00 | 91 | 1010.0 |
| 20260509072340 | 53 | 329 | 1.0 | 3.0 | 0.00 | 0.00 | 0.00 | 91 | 1010.0 |
| 20260509071840 | 53 | 329 | 1.0 | 3.0 | 0.00 | 0.00 | 0.00 | 91 | 1010.0 |
| 20260509071339 | 53 | 329 | 1.0 | 3.0 | 0.00 | 0.00 | 0.00 | 91 | 1010.0 |
| 20260509070840 | 53 | 329 | 1.0 | 3.0 | 0.00 | 0.00 | 0.00 | 91 | 1010.0 |
| 20260509070339 | 53 | 329 | 0.0 | 2.0 | 0.00 | 0.00 | 0.00 | 91 | 1010.0 |
| 20260509065843 | 53 | 329 | 0.0 | 2.0 | 0.00 | 0.00 | 0.00 | 91 | 1010.1 |
| 20260509064840 | 53 | 329 | 1.0 | 3.0 | 0.00 | 0.00 | 0.00 | 91 | 1010.1 |
| 20260509064334 | 53 | 329 | 1.0 | 3.0 | 0.00 | 0.00 | 0.00 | 91 | 1010.2 |
| 20260509063836 | 53 | 329 | 0.0 | 3.0 | 0.00 | 0.00 | 0.00 | 91 | 1010.2 |
| 20260509062830 | 54 | 329 | 0.0 | 2.0 | 0.00 | 0.00 | 0.00 | 91 | 1010.5 |
| 20260509062327 | 54 | 329 | 0.0 | 2.0 | 0.00 | 0.00 | 0.00 | 91 | 1010.5 |
| 20260509061327 | 54 | 329 | 0.0 | 2.0 | 0.00 | 0.00 | 0.00 | 91 | 1010.5 |
| 20260509060824 | 53 | 329 | 1.0 | 3.0 | 0.00 | 0.00 | 0.00 | 91 | 1010.5 |
| 20260509060324 | 53 | 329 | 1.0 | 3.0 | 0.00 | 0.00 | 0.00 | 91 | 1010.5 |
| 20260509055822 | 53 | 329 | 1.0 | 3.0 | 0.00 | 0.00 | 0.00 | 91 | 1010.5 |
| 20260509055324 | 53 | 329 | 1.0 | 3.0 | 0.00 | 0.00 | 0.00 | 91 | 1010.5 |
| 20260509054820 | 53 | 329 | 2.0 | 5.0 | 0.00 | 0.00 | 0.00 | 91 | 1010.5 |
| 20260509054326 | 53 | 329 | 2.0 | 5.0 | 0.00 | 0.00 | 0.00 | 91 | 1010.5 |
| 20260509053820 | 53 | 329 | 2.0 | 4.0 | 0.00 | 0.00 | 0.00 | 91 | 1010.5 |
| 20260509052817 | 53 | 329 | 0.0 | 2.0 | 0.00 | 0.00 | 0.00 | 91 | 1010.5 |
| 20260509052316 | 53 | 329 | 0.0 | 2.0 | 0.00 | 0.00 | 0.00 | 91 | 1010.5 |
| 20260509051814 | 53 | 329 | 1.0 | 4.0 | 0.00 | 0.00 | 0.00 | 91 | 1010.5 |
| 20260509051306 | 53 | 329 | 1.0 | 4.0 | 0.00 | 0.00 | 0.00 | 91 | 1010.4 |
| 20260509050808 | 53 | 329 | 1.0 | 4.0 | 0.00 | 0.00 | 0.00 | 90 | 1010.4 |
| 20260509050305 | 53 | 329 | 1.0 | 3.0 | 0.00 | 0.00 | 0.00 | 90 | 1010.4 |
| 20260509045806 | 53 | 329 | 0.0 | 2.0 | 0.00 | 0.00 | 0.00 | 90 | 1010.2 |
| 20260509045306 | 54 | 329 | 0.0 | 2.0 | 0.00 | 0.00 | 0.00 | 90 | 1010.2 |
| 20260509044800 | 54 | 329 | 1.0 | 4.0 | 0.00 | 0.00 | 0.00 | 90 | 1010.2 |
| 20260509044300 | 54 | 329 | 1.0 | 4.0 | 0.00 | 0.00 | 0.00 | 90 | 1010.1 |
| 20260509043758 | 54 | 329 | 1.0 | 3.0 | 0.00 | 0.00 | 0.00 | 90 | 1010.1 |
| 20260509043258 | 54 | 329 | 1.0 | 3.0 | 0.00 | 0.00 | 0.00 | 90 | 1010.1 |
| 20260509042254 | 54 | 329 | 1.0 | 3.0 | 0.00 | 0.00 | 0.00 | 89 | 1010.0 |
| 20260509041757 | 54 | 329 | 0.0 | 2.0 | 0.00 | 0.00 | 0.00 | 89 | 1010.0 |
| 20260509041252 | 54 | 329 | 1.0 | 4.0 | 0.00 | 0.00 | 0.00 | 89 | 1009.9 |
| 20260509040750 | 54 | 329 | 1.0 | 4.0 | 0.00 | 0.00 | 0.00 | 89 | 1009.9 |
| 20260509040249 | 54 | 329 | 1.0 | 4.0 | 0.00 | 0.00 | 0.00 | 89 | 1009.9 |
| 20260509035748 | 54 | 329 | 1.0 | 4.0 | 0.00 | 0.00 | 0.00 | 88 | 1009.9 |
| 20260509035246 | 54 | 329 | 1.0 | 4.0 | 0.00 | 0.00 | 0.00 | 88 | 1009.9 |
| 20260509034741 | 55 | 329 | 1.0 | 5.0 | 0.00 | 0.00 | 0.00 | 87 | 1009.9 |
| 20260509034241 | 55 | 329 | 0.0 | 5.0 | 0.00 | 0.00 | 0.00 | 87 | 1009.8 |
| 20260509033738 | 55 | 329 | 0.0 | 2.0 | 0.00 | 0.00 | 0.00 | 86 | 1009.8 |
| 20260509033240 | 55 | 329 | 1.0 | 4.0 | 0.00 | 0.00 | 0.00 | 86 | 1009.8 |
| 20260509032732 | 55 | 329 | 1.0 | 4.0 | 0.00 | 0.00 | 0.00 | 86 | 1009.5 |
| 20260509032232 | 56 | 329 | 1.0 | 4.0 | 0.00 | 0.00 | 0.00 | 85 | 1009.5 |
| 20260509031730 | 56 | 329 | 2.0 | 4.0 | 0.00 | 0.00 | 0.00 | 85 | 1009.6 |
| 20260509031227 | 56 | 329 | 1.0 | 4.0 | 0.00 | 0.00 | 0.00 | 84 | 1009.5 |
| 20260509030726 | 56 | 329 | 1.0 | 4.0 | 0.00 | 0.00 | 0.00 | 84 | 1009.5 |
| 20260509030224 | 57 | 329 | 1.0 | 4.0 | 0.00 | 0.00 | 0.00 | 84 | 1009.5 |
| 20260509025719 | 57 | 329 | 1.0 | 3.0 | 0.00 | 0.00 | 0.00 | 83 | 1009.4 |
| 20260509025224 | 57 | 329 | 1.0 | 5.0 | 0.00 | 0.00 | 0.00 | 83 | 1009.4 |
| 20260509024722 | 57 | 329 | 2.0 | 5.0 | 0.00 | 0.00 | 0.00 | 83 | 1009.4 |
| 20260509023717 | 58 | 329 | 3.0 | 6.0 | 0.00 | 0.00 | 0.00 | 82 | 1009.1 |
| 20260509023216 | 58 | 329 | 3.0 | 6.0 | 0.00 | 0.00 | 0.00 | 81 | 1009.1 |
| 20260509022712 | 58 | 331 | 2.0 | 5.0 | 0.00 | 0.00 | 0.00 | 81 | 1009.0 |
| 20260509021713 | 59 | 327 | 4.0 | 6.0 | 0.00 | 0.00 | 0.00 | 80 | 1009.0 |
| 20260509021212 | 59 | 324 | 4.0 | 8.0 | 0.00 | 0.00 | 0.00 | 79 | 1009.0 |
| 20260509020713 | 59 | 327 | 4.0 | 10.0 | 0.00 | 0.00 | 0.00 | 78 | 1009.0 |
| 20260509020212 | 60 | 314 | 4.0 | 10.0 | 0.00 | 0.00 | 0.00 | 77 | 1009.0 |
| 20260509015708 | 61 | 335 | 3.0 | 6.0 | 0.00 | 0.00 | 0.00 | 77 | 1009.0 |
| 20260509015208 | 61 | 315 | 4.0 | 8.0 | 0.00 | 0.00 | 0.00 | 76 | 1009.0 |
| 20260509014707 | 61 | 309 | 4.0 | 9.0 | 0.00 | 0.00 | 0.00 | 76 | 1009.0 |
| 20260509013705 | 62 | 317 | 5.0 | 10.0 | 0.00 | 0.00 | 0.00 | 75 | 1009.0 |
| 20260509013207 | 62 | 314 | 5.0 | 9.0 | 0.00 | 0.00 | 0.00 | 75 | 1009.0 |
| 20260509012702 | 62 | 323 | 4.0 | 9.0 | 0.00 | 0.00 | 0.00 | 73 | 1009.0 |
| 20260509011658 | 63 | 347 | 5.0 | 11.0 | 0.00 | 0.00 | 0.00 | 73 | 1009.0 |
| 20260509010150 | 64 | 319 | 6.0 | 14.0 | 0.00 | 0.00 | 0.00 | 72 | 1008.9 |
| 20260509005649 | 64 | 321 | 5.0 | 10.0 | 0.00 | 0.00 | 0.00 | 72 | 1009.0 |
| 20260509005146 | 65 | 305 | 5.0 | 11.0 | 0.00 | 0.00 | 0.00 | 71 | 1009.0 |
| 20260509004643 | 65 | 316 | 5.0 | 11.0 | 0.00 | 0.00 | 0.00 | 69 | 1009.0 |
| 20260509004141 | 66 | 336 | 4.0 | 9.0 | 0.00 | 0.00 | 0.00 | 69 | 1009.1 |
| 20260509003642 | 66 | 321 | 4.0 | 9.0 | 0.00 | 0.00 | 0.00 | 69 | 1009.1 |
| 20260509002640 | 66 | 315 | 5.0 | 11.0 | 0.00 | 0.00 | 0.00 | 69 | 1009.2 |
| 20260509002134 | 66 | 313 | 5.0 | 11.0 | 0.00 | 0.00 | 0.00 | 68 | 1009.2 |
| 20260509001635 | 66 | 294 | 5.0 | 14.0 | 0.00 | 0.00 | 0.00 | 68 | 1009.2 |
| 20260509001133 | 67 | 316 | 5.0 | 14.0 | 0.00 | 0.00 | 0.00 | 67 | 1009.3 |
| 20260509000633 | 67 | 5 | 5.0 | 10.0 | 0.00 | 0.00 | 0.00 | 67 | 1009.3 |
| 20260509000133 | 67 | 318 | 5.0 | 9.0 | 0.00 | 0.00 | 0.00 | 67 | 1009.3 |
| 20260508235632 | 67 | 351 | 5.0 | 12.0 | 0.00 | 0.00 | 0.00 | 67 | 1009.3 |
| 20260508235129 | 67 | 310 | 5.0 | 12.0 | 0.00 | 0.00 | 0.00 | 67 | 1009.3 |
| 20260508233619 | 67 | 290 | 6.0 | 12.0 | 0.00 | 0.00 | 0.00 | 68 | 1009.6 |
| 20260508232618 | 67 | 355 | 6.0 | 13.0 | 0.00 | 0.00 | 0.00 | 67 | 1009.7 |
| 20260508232119 | 67 | 21 | 7.0 | 15.0 | 0.00 | 0.00 | 0.00 | 67 | 1009.7 |
| 20260508231617 | 67 | 299 | 7.0 | 15.0 | 0.00 | 0.00 | 0.00 | 65 | 1009.7 |
| 20260508231112 | 68 | 288 | 6.0 | 13.0 | 0.00 | 0.00 | 0.00 | 64 | 1009.8 |
| 20260508230611 | 69 | 322 | 5.0 | 11.0 | 0.00 | 0.00 | 0.00 | 65 | 1009.8 |
| 20260508230111 | 69 | 309 | 5.0 | 10.0 | 0.00 | 0.00 | 0.00 | 65 | 1009.8 |
| 20260508225611 | 68 | 343 | 5.0 | 12.0 | 0.00 | 0.00 | 0.00 | 66 | 1009.8 |
| 20260508225112 | 68 | 313 | 6.0 | 13.0 | 0.00 | 0.00 | 0.00 | 66 | 1009.8 |
| 20260508224608 | 68 | 313 | 7.0 | 13.0 | 0.00 | 0.00 | 0.00 | 65 | 1009.8 |
| 20260508224110 | 69 | 285 | 5.0 | 11.0 | 0.00 | 0.00 | 0.00 | 64 | 1010.2 |
| 20260508223609 | 69 | 294 | 5.0 | 11.0 | 0.00 | 0.00 | 0.00 | 64 | 1010.2 |
| 20260508223107 | 69 | 309 | 6.0 | 14.0 | 0.00 | 0.00 | 0.00 | 65 | 1010.2 |
| 20260508222609 | 69 | 266 | 6.0 | 14.0 | 0.00 | 0.00 | 0.00 | 64 | 1010.2 |
| 20260508222107 | 70 | 290 | 5.0 | 11.0 | 0.00 | 0.00 | 0.00 | 64 | 1010.2 |
| 20260508221606 | 69 | 313 | 6.0 | 11.0 | 0.00 | 0.00 | 0.00 | 65 | 1010.2 |
| 20260508221107 | 70 | 303 | 5.0 | 11.0 | 0.00 | 0.00 | 0.00 | 65 | 1010.5 |
| 20260508220605 | 70 | 285 | 5.0 | 11.0 | 0.00 | 0.00 | 0.00 | 64 | 1010.5 |
| 20260508220109 | 70 | 310 | 5.0 | 11.0 | 0.00 | 0.00 | 0.00 | 64 | 1010.5 |
| 20260508215605 | 70 | 314 | 5.0 | 11.0 | 0.00 | 0.00 | 0.00 | 64 | 1010.7 |
| 20260508215106 | 70 | 325 | 5.0 | 10.0 | 0.00 | 0.00 | 0.00 | 66 | 1010.7 |
| 20260508214605 | 69 | 320 | 5.0 | 13.0 | 0.00 | 0.00 | 0.00 | 66 | 1010.7 |
| 20260508214103 | 69 | 301 | 5.0 | 13.0 | 0.00 | 0.00 | 0.00 | 64 | 1010.7 |
| 20260508213602 | 70 | 5 | 4.0 | 10.0 | 0.00 | 0.00 | 0.00 | 65 | 1010.7 |
| 20260508212100 | 67 | 304 | 7.0 | 13.0 | 0.00 | 0.00 | 0.00 | 69 | 1010.8 |
| 20260508211559 | 67 | 309 | 7.0 | 14.0 | 0.00 | 0.00 | 0.00 | 68 | 1010.8 |
| 20260508211057 | 68 | 321 | 7.0 | 14.0 | 0.00 | 0.00 | 0.00 | 67 | 1010.8 |
| 20260508210558 | 68 | 329 | 7.0 | 13.0 | 0.00 | 0.00 | 0.00 | 67 | 1010.8 |
| 20260508210057 | 68 | 311 | 7.0 | 14.0 | 0.00 | 0.00 | 0.00 | 67 | 1010.8 |
| 20260508205553 | 68 | 321 | 7.0 | 14.0 | 0.00 | 0.00 | 0.00 | 66 | 1010.8 |
| 20260508205053 | 70 | 321 | 6.0 | 12.0 | 0.00 | 0.00 | 0.00 | 64 | 1010.8 |
| 20260508204553 | 70 | 5 | 6.0 | 11.0 | 0.00 | 0.00 | 0.00 | 64 | 1010.8 |
| 20260508203553 | 71 | 313 | 5.0 | 11.0 | 0.00 | 0.00 | 0.00 | 62 | 1011.0 |
| 20260508203052 | 71 | 307 | 5.0 | 11.0 | 0.00 | 0.00 | 0.00 | 64 | 1011.0 |
| 20260508202552 | 70 | 314 | 6.0 | 11.0 | 0.00 | 0.00 | 0.00 | 64 | 1011.1 |
| 20260508202053 | 70 | 314 | 6.0 | 11.0 | 0.00 | 0.00 | 0.00 | 64 | 1011.1 |
| 20260508200051 | 71 | 319 | 5.0 | 9.0 | 0.00 | 0.00 | 0.00 | 64 | 1011.2 |
| 20260508195542 | 70 | 309 | 5.0 | 9.0 | 0.00 | 0.00 | 0.00 | 65 | 1011.2 |
| 20260508195043 | 70 | 317 | 4.0 | 8.0 | 0.00 | 0.00 | 0.00 | 65 | 1011.2 |
| 20260508194541 | 70 | 317 | 4.0 | 9.0 | 0.00 | 0.00 | 0.00 | 65 | 1011.2 |
| 20260508194038 | 70 | 321 | 5.0 | 9.0 | 0.00 | 0.00 | 0.00 | 65 | 1011.3 |
| 20260508193540 | 70 | 313 | 4.0 | 9.0 | 0.00 | 0.00 | 0.00 | 64 | 1011.3 |
| 20260508193040 | 70 | 321 | 4.0 | 9.0 | 0.00 | 0.00 | 0.00 | 64 | 1011.3 |
| 20260508192040 | 72 | 270 | 4.0 | 9.0 | 0.00 | 0.00 | 0.00 | 62 | 1011.6 |
| 20260508191542 | 73 | 321 | 4.0 | 7.0 | 0.00 | 0.00 | 0.00 | 61 | 1011.6 |
| 20260508191037 | 73 | 325 | 3.0 | 8.0 | 0.00 | 0.00 | 0.00 | 61 | 1011.7 |
| 20260508190535 | 73 | 355 | 3.0 | 8.0 | 0.00 | 0.00 | 0.00 | 61 | 1011.7 |
| 20260508190033 | 73 | 5 | 3.0 | 8.0 | 0.00 | 0.00 | 0.00 | 61 | 1011.7 |
| 20260508185529 | 72 | 318 | 2.0 | 7.0 | 0.00 | 0.00 | 0.00 | 64 | 1011.8 |
| 20260508185029 | 72 | 336 | 3.0 | 7.0 | 0.00 | 0.00 | 0.00 | 63 | 1011.8 |
| 20260508184529 | 71 | 294 | 3.0 | 7.0 | 0.00 | 0.00 | 0.00 | 64 | 1011.8 |
| 20260508184026 | 70 | 355 | 4.0 | 7.0 | 0.00 | 0.00 | 0.00 | 66 | 1011.9 |
| 20260508183527 | 70 | 331 | 4.0 | 7.0 | 0.00 | 0.00 | 0.00 | 65 | 1011.9 |
| 20260508183026 | 69 | 355 | 4.0 | 10.0 | 0.00 | 0.00 | 0.00 | 67 | 1011.9 |
| 20260508182522 | 69 | 329 | 4.0 | 10.0 | 0.00 | 0.00 | 0.00 | 66 | 1012.0 |
| 20260508182017 | 69 | 315 | 4.0 | 8.0 | 0.00 | 0.00 | 0.00 | 66 | 1012.0 |
| 20260508181520 | 69 | 324 | 4.0 | 8.0 | 0.00 | 0.00 | 0.00 | 68 | 1012.0 |
| 20260508181016 | 69 | 326 | 4.0 | 8.0 | 0.00 | 0.00 | 0.00 | 66 | 1011.9 |
| 20260508180512 | 69 | 0 | 3.0 | 7.0 | 0.00 | 0.00 | 0.00 | 67 | 1011.9 |
| 20260508180011 | 69 | 333 | 2.0 | 6.0 | 0.00 | 0.00 | 0.00 | 66 | 1011.9 |
| 20260508175510 | 69 | 334 | 3.0 | 8.0 | 0.00 | 0.00 | 0.00 | 67 | 1011.9 |
| 20260508175010 | 69 | 335 | 3.0 | 8.0 | 0.00 | 0.00 | 0.00 | 67 | 1011.9 |
| 20260508174511 | 68 | 322 | 3.0 | 7.0 | 0.00 | 0.00 | 0.00 | 69 | 1011.9 |
| 20260508174011 | 67 | 355 | 4.0 | 7.0 | 0.00 | 0.00 | 0.00 | 70 | 1012.1 |
| 20260508173509 | 67 | 319 | 3.0 | 7.0 | 0.00 | 0.00 | 0.00 | 68 | 1012.1 |
| 20260508173011 | 67 | 343 | 3.0 | 6.0 | 0.00 | 0.00 | 0.00 | 70 | 1012.1 |
| 20260508172507 | 67 | 326 | 3.0 | 7.0 | 0.00 | 0.00 | 0.00 | 69 | 1012.3 |
| 20260508172006 | 67 | 330 | 2.0 | 6.0 | 0.00 | 0.00 | 0.00 | 71 | 1012.3 |
| 20260508171505 | 66 | 340 | 3.0 | 8.0 | 0.00 | 0.00 | 0.00 | 73 | 1012.3 |
| 20260508171006 | 66 | 311 | 3.0 | 9.0 | 0.00 | 0.00 | 0.00 | 72 | 1012.3 |
| 20260508170000 | 66 | 325 | 2.0 | 6.0 | 0.00 | 0.00 | 0.00 | 72 | 1012.3 |
| 20260508165458 | 65 | 140 | 2.0 | 4.0 | 0.00 | 0.00 | 0.00 | 75 | 1012.3 |
| 20260508164956 | 64 | 14 | 2.0 | 5.0 | 0.00 | 0.00 | 0.00 | 76 | 1012.3 |
| 20260508164455 | 64 | 15 | 1.0 | 5.0 | 0.00 | 0.00 | 0.00 | 76 | 1012.3 |
| 20260508164003 | 63 | 15 | 1.0 | 4.0 | 0.00 | 0.00 | 0.00 | 77 | 1012.3 |
| 20260508162954 | 61 | 12 | 2.0 | 5.0 | 0.00 | 0.00 | 0.00 | 79 | 1012.3 |
| 20260508162454 | 61 | 14 | 2.0 | 4.0 | 0.00 | 0.00 | 0.00 | 80 | 1012.3 |
| 20260508161450 | 61 | 9 | 2.0 | 5.0 | 0.00 | 0.00 | 0.00 | 79 | 1012.3 |
| 20260508160948 | 61 | 11 | 1.0 | 5.0 | 0.00 | 0.00 | 0.00 | 80 | 1012.3 |
| 20260508160447 | 60 | 355 | 1.0 | 5.0 | 0.00 | 0.00 | 0.00 | 81 | 1012.3 |
| 20260508155949 | 60 | 344 | 1.0 | 4.0 | 0.00 | 0.00 | 0.00 | 82 | 1012.3 |
| 20260508154450 | 58 | 350 | 1.0 | 4.0 | 0.00 | 0.00 | 0.00 | 84 | 1012.3 |
| 20260508153440 | 57 | 350 | 1.0 | 5.0 | 0.00 | 0.00 | 0.00 | 87 | 1012.2 |
| 20260508152932 | 56 | 350 | 1.0 | 4.0 | 0.00 | 0.00 | 0.00 | 89 | 1012.2 |
| 20260508152433 | 55 | 350 | 1.0 | 4.0 | 0.00 | 0.00 | 0.00 | 89 | 1012.2 |
| 20260508151933 | 55 | 350 | 1.0 | 3.0 | 0.00 | 0.00 | 0.00 | 90 | 1012.2 |
| 20260508151429 | 54 | 350 | 2.0 | 5.0 | 0.00 | 0.00 | 0.00 | 90 | 1012.2 |
| 20260508150930 | 54 | 350 | 2.0 | 5.0 | 0.00 | 0.00 | 0.00 | 91 | 1012.2 |
| 20260508150427 | 54 | 350 | 2.0 | 5.0 | 0.00 | 0.00 | 0.00 | 91 | 1012.2 |
| 20260508145927 | 54 | 350 | 2.0 | 5.0 | 0.00 | 0.00 | 0.00 | 91 | 1012.2 |
| 20260508145423 | 54 | 350 | 2.0 | 5.0 | 0.00 | 0.00 | 0.00 | 91 | 1012.5 |
| 20260508144920 | 54 | 350 | 2.0 | 5.0 | 0.00 | 0.00 | 0.00 | 92 | 1012.5 |
| 20260508144420 | 53 | 351 | 2.0 | 5.0 | 0.00 | 0.00 | 0.00 | 92 | 1012.5 |
| 20260508143915 | 53 | 350 | 2.0 | 7.0 | 0.00 | 0.00 | 0.00 | 92 | 1012.5 |
| 20260508143414 | 53 | 355 | 2.0 | 7.0 | 0.00 | 0.00 | 0.00 | 92 | 1012.5 |
| 20260508142913 | 53 | 329 | 2.0 | 7.0 | 0.00 | 0.00 | 0.00 | 92 | 1012.5 |
| 20260508141911 | 53 | 327 | 3.0 | 7.0 | 0.00 | 0.00 | 0.00 | 92 | 1012.2 |
| 20260508141415 | 53 | 0 | 3.0 | 7.0 | 0.00 | 0.00 | 0.00 | 92 | 1012.2 |
| 20260508140412 | 53 | 327 | 2.0 | 5.0 | 0.00 | 0.00 | 0.00 | 93 | 1012.1 |
| 20260508135909 | 53 | 316 | 2.0 | 7.0 | 0.00 | 0.00 | 0.00 | 93 | 1012.1 |
| 20260508135405 | 53 | 319 | 3.0 | 7.0 | 0.00 | 0.00 | 0.00 | 93 | 1012.1 |
| 20260508134401 | 53 | 294 | 2.0 | 7.0 | 0.00 | 0.00 | 0.00 | 93 | 1012.1 |
| 20260508132854 | 53 | 279 | 2.0 | 7.0 | 0.00 | 0.00 | 0.00 | 94 | 1011.9 |
| 20260508131854 | 53 | 298 | 2.0 | 5.0 | 0.00 | 0.00 | 0.00 | 94 | 1011.9 |
| 20260508131350 | 53 | 298 | 2.0 | 5.0 | 0.00 | 0.00 | 0.00 | 94 | 1011.7 |
| 20260508130850 | 53 | 331 | 1.0 | 5.0 | 0.00 | 0.00 | 0.00 | 94 | 1011.7 |
| 20260508130348 | 53 | 332 | 2.0 | 5.0 | 0.00 | 0.00 | 0.00 | 94 | 1011.7 |
| 20260508125847 | 53 | 332 | 2.0 | 5.0 | 0.00 | 0.00 | 0.00 | 94 | 1011.6 |
| 20260508125346 | 53 | 329 | 2.0 | 5.0 | 0.00 | 0.00 | 0.00 | 94 | 1011.6 |
| 20260508124848 | 53 | 329 | 2.0 | 5.0 | 0.00 | 0.00 | 0.00 | 94 | 1011.6 |
| 20260508124347 | 53 | 329 | 2.0 | 6.0 | 0.00 | 0.00 | 0.00 | 94 | 1011.6 |
| 20260508123849 | 53 | 274 | 3.0 | 6.0 | 0.00 | 0.00 | 0.00 | 94 | 1011.6 |
| 20260508123343 | 53 | 289 | 3.0 | 6.0 | 0.00 | 0.00 | 0.00 | 94 | 1011.6 |
| 20260508122842 | 53 | 319 | 3.0 | 6.0 | 0.00 | 0.00 | 0.00 | 94 | 1011.6 |
| 20260508122340 | 53 | 321 | 2.0 | 6.0 | 0.00 | 0.00 | 0.00 | 94 | 1011.6 |
| 20260508121336 | 53 | 322 | 1.0 | 4.0 | 0.00 | 0.00 | 0.00 | 94 | 1011.5 |
| 20260508120834 | 53 | 320 | 2.0 | 4.0 | 0.00 | 0.00 | 0.00 | 94 | 1011.5 |
| 20260508115831 | 53 | 320 | 2.0 | 5.0 | 0.00 | 0.00 | 0.00 | 94 | 1011.5 |
| 20260508115323 | 53 | 321 | 1.0 | 4.0 | 0.00 | 0.00 | 0.00 | 94 | 1011.5 |
| 20260508114821 | 53 | 321 | 2.0 | 4.0 | 0.00 | 0.00 | 0.00 | 94 | 1011.5 |
| 20260508114320 | 53 | 302 | 2.0 | 4.0 | 0.00 | 0.00 | 0.00 | 94 | 1011.5 |
| 20260508113820 | 53 | 346 | 2.0 | 5.0 | 0.00 | 0.00 | 0.00 | 94 | 1011.5 |
| 20260508113316 | 53 | 346 | 2.0 | 5.0 | 0.00 | 0.00 | 0.00 | 94 | 1011.5 |